Starlink 33919

operational
NORAD ID: 63699 Int'l Des: 2025-087 Owner: SPXS Country: US Constellation: starlink
LEOCIRCULAR

About Starlink 33919

Description loading...

Live Position

Loading 3D Globe...

Upcoming Passes

Altitude History

Altitude vs Time

uPlot chart will show altitude changes over time

Two-Line Element Set

1 63699U 25087C 26036.94087403 .00055808 00000-0 18796-2 0 9996
2 63699 53.1609 7.3885 0001493 100.1223 259.9946 15.30246688 44337
Epoch: Feb 5, 2026 • Age: 7 hours

Current Status

Altitude 479.2 km
Velocity 7.63 km/s
Sub-Earth Point 47.30°N, 84.31°W
Launch Date Apr 28, 2025
Age 0.7 years
Type internet

Technical Details

Classification Payload
Mass 575.00 kg
Dry Mass 530.00 kg
Total Mass 575.00 kg
Length 0.30 m
Diameter 4.10 m
Span 29.00 m
Shape Box + pan
Manufacturer SPXS
Bus Type Starlink V2MO
Phase Status In Orbit
Owner/State SPXS/US

Large Constellations

Loading constellations...